Wind_Speed
19 19 18 18 18 18 18 17 17 17 17 17 16 16 15 14 14 13 13 13 12 11 10 9 9 8 7 7 7 7 7 6 6 6 6 6 6 6 6 7 7 7 8
21 21 21 20 20 20 20 20 19 19 19 19 18 18 17 16 16 15 15 15 14 13 12 11 11 10 10 9 9 8 8 8 8 8 8 8 8 8 8 8 8 8 8
23 23 23 23 23 22 22 22 22 22 22 21 21 20 19 19 18 17 17 17 16 15 15 14 14 13 12 11 10 10 10 10 10 9 9 9 9 9 9 9 9 9 9
25 25 25 25 25 25 25 24 24 24 24 24 23 23 22 21 20 20 19 18 18 17 17 16 16 15 14 13 12 11 11 11 11 11 11 10 10 10 10 10 10 10 10
28 28 28 27 27 27 27 27 27 27 27 26 26 25 25 24 23 23 22 21 20 19 19 19 18 17 16 15 14 13 13 12 13 13 12 12 12 11 11 11 11 11 12
30 30 30 30 30 30 30 29 29 29 29 29 28 28 27 27 26 25 25 24 23 22 21 20 20 19 19 17 16 16 15 14 14 14 14 14 13 13 12 12 12 13 13
32 32 32 32 32 32 32 32 32 32 32 31 31 30 30 29 28 28 27 27 26 25 24 23 22 21 21 20 19 18 17 17 16 16 16 15 15 15 14 14 14 14 14
34 34 34 35 35 34 35 35 34 34 34 34 33 33 32 32 31 30 29 29 28 27 26 26 25 24 23 22 22 21 20 19 19 18 18 17 17 17 16 16 16 15 16
37 37 38 38 37 37 37 37 37 37 36 36 35 35 34 33 33 33 32 31 30 29 28 28 27 27 26 25 24 23 23 22 21 20 20 19 18 18 18 18 18 17 17
39 40 40 40 39 39 39 39 39 39 39 38 37 37 36 35 35 35 35 34 33 32 31 31 30 29 28 27 26 25 25 24 23 23 22 21 20 20 20 20 19 19 19
42 42 42 42 42 42 42 42 42 42 41 40 39 39 38 38 37 37 37 36 36 35 34 33 32 31 31 30 28 28 27 26 26 25 24 24 23 22 22 21 21 21 21
43 43 43 43 44 44 44 44 44 44 43 42 41 40 40 40 39 39 38 37 37 37 36 35 34 33 33 32 31 30 29 28 28 27 27 26 25 24 24 23 23 22 22
45 45 45 45 46 46 46 47 46 46 45 44 43 42 42 41 41 40 40 39 38 38 38 37 36 36 35 34 33 32 31 30 30 30 29 28 27 26 26 25 24 24 24
46 46 47 48 48 48 48 48 48 48 47 46 45 44 44 43 43 42 41 40 40 39 38 38 38 38 37 35 35 34 33 32 31 31 31 30 29 28 28 27 27 26 26
48 48 49 50 50 49 49 49 49 49 49 48 48 47 46 45 45 44 44 42 42 41 40 40 40 40 39 38 37 36 35 34 34 33 32 32 31 31 30 29 29 29 28
49 50 50 50 51 50 50 49 51 51 50 50 50 49 48 48 47 47 46 45 43 43 42 42 42 42 41 40 39 37 37 36 35 35 35 34 33 33 32 31 31 30 30
50 51 51 51 52 51 50 50 51 52 52 52 52 52 51 51 50 49 48 47 46 45 45 45 44 44 43 42 41 39 39 38 37 37 36 35 35 34 33 33 33 32 32
49 50 51 52 52 52 52 52 52 53 54 54 54 54 54 53 52 51 50 49 49 47 47 46 46 46 45 44 43 41 41 40 39 38 38 38 37 36 35 35 34 34 34
46 48 49 51 52 52 52 52 53 53 55 56 56 56 56 55 54 53 53 52 51 49 49 48 48 47 46 46 45 44 43 42 42 41 39 39 39 38 38 36 36 36 35
44 46 49 50 52 52 52 53 53 53 54 55 56 56 57 56 55 55 55 55 53 52 51 50 49 49 48 47 47 46 45 44 43 43 41 39 39 39 38 38 38 37 37
43 45 47 49 51 51 52 52 53 52 53 54 54 55 56 57 56 55 56 55 54 53 52 51 51 50 50 49 49 48 47 46 45 44 42 41 40 40 40 39 39 39 38
42 43 45 47 49 50 51 52 53 52 52 54 54 55 55 56 55 55 56 56 55 54 53 52 52 52 51 50 50 49 48 48 46 45 44 43 42 42 41 40 40 40 39
42 43 44 45 47 49 51 51 52 51 52 52 53 54 53 54 55 55 55 56 56 55 54 53 52 52 52 52 51 51 50 49 48 47 45 45 44 43 42 41 41 40 40
41 42 44 45 46 48 49 49 50 51 52 52 52 52 53 54 54 54 55 56 56 55 55 53 53 53 53 52 52 51 51 50 49 47 46 45 44 44 43 42 42 41 41
40 42 43 44 46 48 48 48 49 50 50 51 52 52 51 52 53 53 53 53 54 54 54 54 53 53 53 52 51 51 51 51 50 49 48 46 45 45 44 43 43 42 41
40 41 42 43 44 45 46 46 47 48 48 49 49 50 50 51 52 51 52 52 53 53 53 53 53 53 53 52 51 51 51 51 51 50 48 47 45 45 45 44 43 42 42
Wind_Direction
245 245 244 243 242 241 240 240 241 241 241 241 239 237 237 237 238 238 237 236 235 236 240 242 243 252 260 268 275 277 276 279 283 285 284 286 292 296 300 303 308 312 313
247 248 247 246 245 244 244 243 241 242 242 243 243 243 242 242 241 242 240 240 240 241 244 246 248 253 261 266 269 271 271 272 276 279 280 283 286 290 292 296 300 304 306
248 249 249 248 247 246 245 245 244 243 243 244 244 245 245 245 245 244 244 245 244 245 247 250 252 255 259 264 266 268 269 269 272 276 279 283 284 286 288 291 294 298 301
248 248 249 249 249 248 247 246 245 245 245 245 245 246 246 246 247 247 246 247 248 248 249 252 255 256 259 263 264 264 266 267 268 273 276 282 284 285 285 288 291 293 296
248 248 248 249 249 249 248 248 248 247 247 246 246 246 247 246 247 248 248 249 250 251 251 253 255 256 258 261 262 262 263 266 268 270 273 278 282 283 284 286 289 290 292
249 249 249 249 249 249 248 248 249 249 249 248 247 247 247 247 247 248 249 249 251 252 252 253 255 256 258 259 260 260 261 265 268 269 271 274 277 279 281 283 286 288 290
251 250 249 249 249 249 249 249 249 250 250 250 249 248 248 248 248 249 250 250 251 252 253 254 254 257 258 258 259 259 260 264 267 268 270 271 272 275 278 280 283 286 289
252 251 251 250 249 249 250 250 250 250 250 250 250 249 249 249 249 249 250 251 252 252 252 253 254 256 258 260 259 258 259 261 265 266 268 269 270 271 275 278 280 284 288
254 252 251 250 250 250 251 251 251 250 250 250 251 250 249 249 249 249 249 251 251 252 253 253 254 255 257 259 259 258 258 259 262 264 266 267 268 269 272 274 278 281 285
255 254 253 251 251 251 251 251 251 251 251 250 250 251 250 249 249 249 250 250 251 252 253 254 254 254 256 258 259 258 258 259 260 262 263 265 267 269 270 272 275 278 282
255 254 253 252 251 250 250 251 251 251 251 250 250 251 250 250 250 250 250 251 251 251 252 254 255 255 256 256 257 258 258 259 260 261 261 263 265 268 269 271 273 276 279
256 254 253 252 251 250 250 250 251 251 251 250 250 250 250 249 250 250 250 250 251 251 251 252 254 256 256 256 257 258 258 259 260 261 261 262 264 266 268 270 272 275 278
257 255 253 252 251 250 249 249 250 251 251 250 250 249 249 249 249 249 250 250 250 251 251 252 252 255 257 258 258 258 258 259 261 260 260 261 263 266 267 268 271 274 277
257 256 254 253 251 250 249 249 249 249 250 250 249 249 248 248 248 249 250 250 250 251 252 252 252 254 256 258 259 258 259 259 261 261 260 261 263 264 265 268 270 273 277
256 255 255 254 251 251 250 249 248 249 248 249 249 249 249 248 248 249 249 250 251 251 251 252 252 253 254 256 258 258 259 260 260 261 260 261 262 263 264 266 269 272 276
258 256 254 253 250 250 250 249 249 248 248 248 248 248 248 248 248 248 249 250 251 251 251 252 253 253 254 256 256 258 260 260 260 260 261 261 262 262 264 266 268 271 274
257 256 253 251 249 249 249 249 249 247 248 247 247 248 248 248 248 248 249 250 251 252 252 252 253 254 254 255 255 257 258 259 258 257 259 260 261 262 263 266 267 270 273
257 255 252 250 249 249 250 249 249 248 248 248 248 248 248 248 248 248 250 250 250 251 252 252 252 254 254 254 254 255 257 258 258 258 260 260 261 262 263 265 267 269 272
259 254 251 250 249 249 250 250 249 251 250 249 249 248 248 249 249 248 249 250 251 251 252 252 252 253 254 254 254 255 256 256 257 258 259 260 261 262 262 264 267 269 271
262 257 252 250 250 250 250 250 250 251 250 249 249 248 248 248 248 248 249 250 250 251 252 252 252 252 252 253 253 254 254 255 255 257 258 260 261 262 263 264 265 268 271
263 257 253 251 250 251 251 250 250 251 250 250 248 248 247 248 248 249 249 248 249 250 251 251 251 251 251 252 253 253 253 254 254 255 257 257 261 263 264 265 266 267 270
265 258 253 251 251 252 253 252 251 251 250 249 249 248 247 248 248 248 249 249 248 248 249 250 251 250 250 251 252 252 253 253 253 254 256 257 259 262 264 265 267 267 269
266 262 258 254 253 253 253 253 252 251 250 249 249 248 248 248 248 248 248 248 247 247 247 248 249 249 250 250 251 251 252 252 252 253 255 256 258 261 263 264 265 266 269
269 263 258 255 255 255 253 254 254 253 253 251 250 249 249 249 249 248 248 248 247 246 246 247 248 249 249 249 250 251 252 251 252 252 254 256 258 260 262 263 264 266 269
273 265 259 257 256 255 255 255 255 254 253 252 250 250 250 249 247 248 248 248 247 245 245 246 247 248 248 248 249 251 251 251 251 253 254 255 257 259 260 262 264 266 269
275 266 260 259 258 256 255 254 255 254 253 252 251 250 250 248 246 247 246 246 246 246 245 246 247 247 247 247 248 250 251 250 251 252 253 256 256 258 259 261 264 266 268
Height
5848 5849 5850 5851 5852 5853 5854 5855 5855 5856 5857 5858 5858 5859 5860 5860 5860 5861 5861 5861 5861 5861 5861 5861 5861 5861 5861 5861 5860 5860 5859 5859 5859 5858 5857 5857 5856 5856 5855 5854 5853 5852 5851
5845 5846 5847 5848 5849 5850 5851 5851 5852 5853 5854 5855 5856 5856 5857 5858 5858 5859 5859 5859 5859 5859 5859 5859 5859 5859 5859 5859 5859 5858 5858 5857 5857 5857 5856 5855 5855 5854 5853 5852 5851 5851 5850
5841 5842 5843 5844 5845 5846 5847 5848 5849 5850 5851 5852 5853 5854 5854 5855 5855 5856 5856 5856 5857 5857 5857 5857 5857 5857 5857 5857 5856 5856 5856 5856 5855 5855 5854 5853 5853 5852 5851 5851 5850 5849 5848
5836 5837 5838 5839 5840 5842 5843 5844 5845 5846 5847 5848 5849 5850 5851 5852 5852 5853 5853 5854 5854 5854 5855 5854 5854 5854 5854 5854 5854 5854 5854 5853 5853 5852 5852 5851 5851 5850 5849 5849 5848 5847 5846
5831 5832 5833 5834 5836 5837 5838 5839 5840 5841 5842 5844 5845 5846 5847 5848 5849 5849 5850 5850 5851 5851 5851 5851 5851 5851 5851 5851 5851 5851 5851 5851 5850 5850 5849 5849 5848 5848 5847 5846 5845 5844 5843
5825 5826 5827 5829 5830 5831 5832 5834 5835 5836 5837 5839 5840 5841 5842 5843 5844 5845 5846 5846 5847 5847 5848 5848 5848 5848 5848 5848 5848 5848 5848 5848 5847 5847 5846 5846 5846 5845 5844 5844 5843 5842 5841
5819 5820 5821 5822 5824 5825 5826 5828 5829 5831 5832 5833 5834 5836 5837 5838 5839 5840 5841 5841 5842 5843 5844 5844 5844 5844 5844 5844 5845 5845 5845 5844 5844 5844 5843 5843 5843 5842 5842 5841 5840 5839 5838
5812 5813 5814 5816 5817 5818 5820 5821 5823 5824 5826 5827 5828 5829 5831 5832 5834 5835 5836 5836 5837 5838 5839 5839 5840 5840 5840 5840 5841 5841 5841 5841 5840 5840 5840 5839 5839 5839 5838 5838 5837 5836 5835
5804 5805 5806 5808 5810 5811 5812 5814 5815 5817 5818 5820 5821 5823 5825 5826 5827 5829 5830 5831 5831 5832 5833 5834 5834 5835 5835 5836 5836 5836 5837 5836 5836 5836 5836 5836 5835 5835 5835 5834 5833 5833 5832
5795 5796 5798 5799 5801 5803 5804 5806 5807 5809 5811 5812 5814 5816 5817 5819 5820 5822 5823 5824 5826 5827 5828 5828 5829 5829 5830 5830 5831 5832 5832 5832 5832 5832 5832 5832 5831 5831 5830 5830 5829 5828 5828
5786 5787 5788 5790 5792 5793 5795 5797 5799 5800 5802 5804 5806 5808 5810 5811 5813 5814 5816 5817 5819 5820 5821 5822 5823 5823 5824 5825 5825 5826 5826 5827 5827 5827 5827 5827 5827 5826 5826 5825 5825 5824 5823
5775 5776 5778 5779 5781 5783 5785 5787 5789 5791 5793 5795 5797 5799 5801 5803 5805 5807 5808 5810 5811 5813 5814 5815 5816 5817 5818 5818 5819 5820 5821 5821 5822 5822 5822 5822 5822 5822 5821 5821 5820 5819 5818
5763 5764 5766 5768 5770 5772 5775 5777 5779 5781 5783 5785 5788 5790 5792 5795 5797 5799 5800 5802 5803 5805 5806 5808 5809 5810 5811 5812 5813 5814 5815 5815 5816 5816 5817 5817 5817 5817 5816 5816 5815 5815 5813
5750 5752 5754 5756 5758 5761 5763 5766 5768 5770 5773 5776 5778 5780 5783 5786 5788 5790 5792 5793 5795 5797 5798 5800 5802 5803 5804 5805 5806 5807 5808 5809 5809 5810 5811 5811 5811 5811 5811 5811 5810 5809 5808
5738 5740 5741 5742 5745 5748 5751 5754 5756 5758 5761 5764 5767 5770 5773 5775 5778 5781 5783 5785 5786 5788 5790 5792 5794 5795 5796 5798 5799 5800 5801 5802 5803 5803 5804 5804 5805 5805 5805 5805 5804 5804 5803
5723 5725 5727 5729 5732 5735 5738 5741 5743 5745 5749 5752 5756 5759 5762 5764 5767 5770 5773 5775 5777 5779 5782 5783 5785 5787 5788 5790 5791 5792 5793 5794 5795 5796 5797 5798 5798 5798 5799 5798 5798 5797 5797
5707 5709 5712 5715 5718 5722 5725 5728 5730 5732 5735 5739 5743 5747 5750 5752 5756 5758 5761 5765 5767 5769 5772 5774 5776 5777 5779 5781 5783 5784 5785 5787 5787 5789 5790 5790 5791 5791 5792 5792 5791 5791 5790
5691 5693 5697 5700 5704 5708 5712 5715 5717 5718 5722 5726 5730 5733 5737 5740 5743 5747 5750 5754 5756 5759 5761 5763 5766 5768 5769 5771 5773 5775 5777 5778 5779 5781 5782 5783 5783 5784 5784 5784 5784 5784 5783
5676 5678 5681 5686 5690 5693 5697 5701 5703 5705 5709 5712 5716 5719 5723 5727 5730 5734 5738 5742 5744 5747 5750 5752 5755 5757 5759 5761 5763 5766 5767 5769 5771 5772 5774 5775 5775 5776 5776 5777 5777 5777 5776
5663 5665 5668 5671 5675 5679 5683 5686 5689 5691 5694 5698 5701 5705 5708 5712 5716 5720 5724 5728 5731 5734 5737 5740 5743 5746 5748 5750 5752 5755 5757 5759 5761 5763 5765 5766 5767 5768 5768 5768 5769 5769 5769
5651 5653 5655 5658 5662 5665 5669 5673 5676 5677 5680 5684 5687 5690 5694 5698 5702 5706 5710 5714 5718 5721 5725 5728 5730 5733 5736 5739 5741 5744 5746 5749 5751 5753 5756 5757 5758 5759 5760 5760 5760 5761 5760
5640 5641 5644 5646 5649 5652 5655 5659 5662 5664 5667 5670 5673 5676 5680 5684 5688 5692 5696 5700 5703 5707 5711 5715 5717 5720 5724 5727 5730 5732 5735 5738 5740 5743 5746 5748 5749 5750 5751 5751 5752 5752 5752
5630 5630 5632 5634 5636 5639 5641 5645 5648 5650 5653 5656 5659 5663 5667 5670 5673 5678 5681 5685 5689 5693 5697 5701 5704 5708 5711 5715 5717 5720 5724 5727 5730 5733 5736 5738 5740 5741 5742 5743 5743 5743 5743
5619 5619 5620 5622 5624 5626 5628 5631 5634 5637 5640 5644 5646 5650 5653 5656 5659 5663 5667 5670 5674 5679 5683 5688 5691 5695 5698 5702 5705 5708 5712 5716 5719 5723 5726 5728 5730 5731 5733 5733 5733 5733 5733
5608 5607 5608 5610 5612 5614 5616 5618 5622 5624 5627 5630 5633 5636 5639 5642 5646 5649 5653 5656 5660 5665 5670 5674 5678 5681 5685 5689 5693 5696 5699 5703 5707 5711 5715 5718 5719 5721 5723 5724 5724 5724 5724
5596 5596 5597 5599 5601 5603 5605 5607 5609 5612 5614 5617 5619 5623 5626 5629 5632 5636 5639 5643 5647 5651 5656 5660 5664 5668 5672 5676 5680 5684 5688 5692 5696 5700 5704 5707 5709 5711 5713 5714 5715 5715 5715